Regional Weather Roundup
Issued by NWS Nashville, TN

Home | Current Version | Previous Version | Text Only | Print | Product List | Glossary On
Versions: 1 2 3 4 5 6 7 8 9 10 11 12 13 14 15 16 17 18 19 20 21 22 23 24 25 26 27 28 29 30 31 32 33 34 35 36 37 38 39 40 41 42 43 44 45 46 47 48 49 50
000
ASUS44 KOHX 261315
RWROHX
MIDDLE TENNESSEE HOURLY WEATHER ROUNDUP
NATIONAL WEATHER SERVICE NASHVILLE TN
800 AM CDT SAT JUL 26 2014

NOTE: "FAIR" INDICATES FEW OR NO CLOUDS BELOW 12,000 FEET WITH
NO SIGNIFICANT WEATHER AND/OR OBSTRUCTIONS TO VISIBILITY.

* THESE REPORTS ARE NOT UNDER NWS QUALITY CONTROL AND MAY NOT
  REPORT WEATHER SUCH AS PRECIPITATION AND FOG.


TNZ005>011-023>034-057-059-062>066-078-080-261400
...NORTHERN MIDDLE TENNESSEE...

CITY           SKY/WX    TMP DP  RH WIND       PRES   REMARKS
CLARKSVILLE    SUNNY     72  65  78 SW5       30.02R
CROSSVILLE     SUNNY     73  62  68 CALM      30.11R
GALLATIN         N/A     69  66  90 CALM      30.05R
DICKSON        SUNNY     72  64  78 W7        30.03R
LEBANON        SUNNY     73  63  71 CALM      30.02R
LIVINGSTON       N/A     71  61  70 SW3       30.07
NASHVILLE      MOSUNNY   72  65  78 S3        30.04R
WEST NASHVILLE   N/A     70  70 100 S3        30.03R
PORTLAND       SUNNY     70  64  83 S6        30.03
SMYRNA         SUNNY     71  70  97 SE3       30.05R
SPARTA         SUNNY     70  64  83 CALM      30.06R
$$
TNZ056-058-060-061-075>077-079-093>097-261400
...SOUTHERN MIDDLE TENNESSEE...

CITY           SKY/WX    TMP DP  RH WIND       PRES   REMARKS
COLUMBIA       SUNNY     72  66  83 SW3       30.04R
FAYETTEVILLE   SUNNY     72  64  78 S9G23     30.07R
LEWISBURG      SUNNY     72  65  78 CALM      30.04S
MCMINNVILLE    SUNNY     72  72 100 CALM      30.07R
MURFREESBORO   SUNNY     72  64  75 SW3       30.04R
SHELBYVILLE    SUNNY     72  66  83 S5        30.06S
TULLAHOMA      SUNNY     70  64  83 SW3       30.08R
WINCHESTER     SUNNY     72  64  78 CALM      30.07R
$$


...KEY TO REMARKS...
VSB - VISIBILITY IN MILES
WCI - WIND CHILL INDEX
HX  - HEAT INDEX




USA.gov is the U.S. government's official web portal to all federal, state and local government web resources and services.